,,,PA_Meas_PMT16A,,PR_Meas_QMR101_102,,RH_Meas_QMH101,,SR_Meas_QMS101,,TA_Meas_QMH101,,GenWind,,GenWind,
date,time,status,PA,status,PR,status,RH,status,SR,status,TA,status,DirAvg,status,SpdAvg,
2009-05-24, 00:00:04,VALID,1003.53,VALID,0,VALID,86.7785,VALID,0,VALID,25.6895,VALID,18,VALID,0.338672,
2009-05-24, 00:01:04,VALID,1003.52,VALID,0,VALID,86.7785,VALID,0.100563,VALID,25.6681,VALID,355,VALID,0.342969,
2009-05-24, 00:02:04,VALID,1003.53,VALID,0,VALID,86.7404,VALID,0.100563,VALID,25.6876,VALID,23,VALID,0.323438,
2009-05-24, 00:03:04,VALID,1003.51,VALID,0,VALID,86.6565,VALID,0,VALID,25.6895,VALID,336,VALID,0.455469,
2009-05-24, 00:04:04,VALID,1003.5,VALID,0,VALID,86.5649,VALID,0,VALID,25.709,VALID,326,VALID,0.125,
2009-05-24, 00:05:04,VALID,1003.49,VALID,0,VALID,86.5954,VALID,0,VALID,25.6681,VALID,326,VALID,0.155078,
2009-05-24, 00:06:04,VALID,1003.45,VALID,0,VALID,86.6793,VALID,0,VALID,25.6681,VALID,327,VALID,0.432422,
2009-05-24, 00:07:04,VALID,1003.42,VALID,0,VALID,86.5878,VALID,0,VALID,25.6681,VALID,2,VALID,1.54883,
2009-05-24, 00:08:04,VALID,1003.42,VALID,0,VALID,86.1682,VALID,0,VALID,25.7265,VALID,352,VALID,0.608594,
2009-05-24, 00:09:04,VALID,1003.39,VALID,0,VALID,85.9088,VALID,0.100563,VALID,25.785,VALID,352,VALID,0.336719,
2009-05-24, 00:10:04,VALID,1003.4,VALID,0,VALID,85.7639,VALID,0.100563,VALID,25.8044,VALID,350,VALID,0.345703,
2009-05-24, 00:11:04,VALID,1003.42,VALID,0,VALID,85.7105,VALID,0,VALID,25.8064,VALID,346,VALID,0.403906,
2009-05-24, 00:12:04,VALID,1003.42,VALID,0,VALID,85.6647,VALID,0,VALID,25.7655,VALID,341,VALID,0.44375,
2009-05-24, 00:13:04,VALID,1003.41,VALID,0,VALID,85.68,VALID,0.100563,VALID,25.8064,VALID,341,VALID,0.294922,
2009-05-24, 00:14:04,VALID,1003.44,VALID,0,VALID,85.7105,VALID,0,VALID,25.7655,VALID,343,VALID,0.223047,
2009-05-24, 00:15:04,VALID,1003.4,VALID,0,VALID,85.6876,VALID,0,VALID,25.746,VALID,302,VALID,0.407031,
2009-05-24, 00:16:04,VALID,1003.4,VALID,0,VALID,85.6876,VALID,0,VALID,25.7869,VALID,299,VALID,0.383203,
2009-05-24, 00:17:04,VALID,1003.43,VALID,0,VALID,85.7944,VALID,0,VALID,25.7655,VALID,307,VALID,0.452734,
2009-05-24, 00:18:04,VALID,1003.42,VALID,0,VALID,85.8249,VALID,0,VALID,25.7674,VALID,313,VALID,0.0316406,
2009-05-24, 00:19:04,VALID,1003.42,VALID,0,VALID,85.9165,VALID,0,VALID,25.7265,VALID,345,VALID,0.436719,
2009-05-24, 00:20:04,VALID,1003.44,VALID,0,VALID,85.9622,VALID,0,VALID,25.748,VALID,345,VALID,0.485938,
2009-05-24, 00:21:04,VALID,1003.43,VALID,0,VALID,85.9165,VALID,0,VALID,25.7694,VALID,339,VALID,0.788281,
2009-05-24, 00:22:04,VALID,1003.46,VALID,0,VALID,85.947,VALID,0,VALID,25.746,VALID,357,VALID,0.198437,
2009-05-24, 00:23:04,VALID,1003.43,VALID,0,VALID,85.9241,VALID,0.100563,VALID,25.7674,VALID,27,VALID,0.614062,
2009-05-24, 00:24:04,VALID,1003.43,VALID,0,VALID,85.7715,VALID,0,VALID,25.746,VALID,18,VALID,1.06055,
2009-05-24, 00:25:04,VALID,1003.41,VALID,0,VALID,85.7105,VALID,0,VALID,25.785,VALID,348,VALID,0.532031,
2009-05-24, 00:26:04,VALID,1003.41,VALID,0,VALID,85.6342,VALID,0,VALID,25.8064,VALID,351,VALID,0.371875,
2009-05-24, 00:27:04,VALID,1003.38,VALID,0,VALID,85.7028,VALID,0,VALID,25.785,VALID,12,VALID,0.324219,
2009-05-24, 00:28:04,VALID,1003.44,VALID,0,VALID,85.6952,VALID,0.100563,VALID,25.785,VALID,11,VALID,0.458203,
2009-05-24, 00:29:04,VALID,1003.4,VALID,0,VALID,85.7181,VALID,0,VALID,25.785,VALID,358,VALID,0.748047,
2009-05-24, 00:30:04,VALID,1003.44,VALID,0,VALID,85.3443,VALID,0,VALID,25.8239,VALID,18,VALID,1.07813,
2009-05-24, 00:31:04,VALID,1003.43,VALID,0,VALID,85.1002,VALID,0,VALID,25.9213,VALID,7,VALID,0.728516,
2009-05-24, 00:32:04,VALID,1003.41,VALID,0,VALID,84.8942,VALID,0,VALID,26.0012,VALID,18,VALID,0.548437,
2009-05-24, 00:33:04,VALID,1003.41,VALID,0,VALID,84.856,VALID,0,VALID,26.0012,VALID,18,VALID,0.195703,
2009-05-24, 00:34:04,VALID,1003.35,VALID,0,VALID,84.6729,VALID,0,VALID,26.0012,VALID,312,VALID,0.613672,
2009-05-24, 00:35:04,VALID,1003.35,VALID,0,VALID,84.5967,VALID,0,VALID,26.0012,VALID,48,VALID,0.473828,
2009-05-24, 00:36:04,VALID,1003.32,VALID,0,VALID,84.5967,VALID,0,VALID,26.0012,VALID,3,VALID,0.748438,
2009-05-24, 00:37:04,VALID,1003.32,VALID,0,VALID,84.4746,VALID,0.100563,VALID,26.0012,VALID,344,VALID,1.26055,
2009-05-24, 00:38:04,VALID,1003.3,VALID,0,VALID,84.6882,VALID,0,VALID,26.0206,VALID,2,VALID,0.2875,
2009-05-24, 00:39:04,VALID,1003.32,VALID,0,VALID,84.5814,VALID,0.100563,VALID,25.9992,VALID,2,VALID,0.361719,
2009-05-24, 00:40:04,VALID,1003.34,VALID,0,VALID,84.6577,VALID,0,VALID,26.0206,VALID,3,VALID,0.658984,
2009-05-24, 00:41:04,VALID,1003.33,VALID,0,VALID,84.4899,VALID,0,VALID,26.0012,VALID,343,VALID,1.12773,
2009-05-24, 00:42:04,VALID,1003.32,VALID,0,VALID,84.3983,VALID,0,VALID,26.0401,VALID,357,VALID,0.612109,
2009-05-24, 00:43:04,VALID,1003.32,VALID,0,VALID,84.3907,VALID,0,VALID,26.0791,VALID,359,VALID,0.766016,
2009-05-24, 00:44:04,VALID,1003.3,VALID,0,VALID,84.3754,VALID,0,VALID,26.0791,VALID,343,VALID,0.614844,
2009-05-24, 00:45:04,VALID,1003.28,VALID,0,VALID,84.4288,VALID,0,VALID,26.0791,VALID,343,VALID,0.287891,
2009-05-24, 00:46:04,VALID,1003.27,VALID,0,VALID,84.4899,VALID,0,VALID,26.0596,VALID,343,VALID,0.105078,
2009-05-24, 00:47:04,VALID,1003.27,VALID,0,VALID,84.4822,VALID,0,VALID,26.0596,VALID,339,VALID,0.333984,
2009-05-24, 00:48:04,VALID,1003.26,VALID,0,VALID,84.3525,VALID,0,VALID,26.0791,VALID,340,VALID,0.621094,
2009-05-24, 00:49:04,VALID,1003.27,VALID,0,VALID,84.3602,VALID,0,VALID,26.0381,VALID,352,VALID,0.336328,
2009-05-24, 00:50:04,VALID,1003.23,VALID,0,VALID,84.1008,VALID,0,VALID,26.0596,VALID,336,VALID,0.805859,
2009-05-24, 00:51:04,VALID,1003.23,VALID,0,VALID,83.7651,VALID,0,VALID,26.0771,VALID,355,VALID,0.816406,
2009-05-24, 00:52:04,VALID,1003.24,VALID,0,VALID,83.4981,VALID,0,VALID,26.157,VALID,347,VALID,1.18164,
2009-05-24, 00:53:04,VALID,1003.22,VALID,0,VALID,83.3303,VALID,0,VALID,26.194,VALID,346,VALID,0.718359,
2009-05-24, 00:54:04,VALID,1003.2,VALID,0,VALID,83.2616,VALID,0,VALID,26.2349,VALID,3,VALID,0.982031,
2009-05-24, 00:55:04,VALID,1003.17,VALID,0,VALID,83.0327,VALID,0,VALID,26.2953,VALID,5,VALID,1.31133,
2009-05-24, 00:56:04,VALID,1003.17,VALID,0,VALID,83.0098,VALID,0,VALID,26.2719,VALID,351,VALID,0.730469,
2009-05-24, 00:57:04,VALID,1003.14,VALID,0,VALID,83.2311,VALID,0,VALID,26.2933,VALID,349,VALID,0.398828,
2009-05-24, 00:58:04,VALID,1003.1,VALID,0,VALID,83.1701,VALID,0,VALID,26.2524,VALID,353,VALID,0.803906,
2009-05-24, 00:59:04,VALID,1003.08,VALID,0,VALID,83.254,VALID,0,VALID,26.2329,VALID,351,VALID,0.328125,
2009-05-24, 01:00:04,VALID,1003.05,VALID,0,VALID,83.4218,VALID,0,VALID,26.2349,VALID,346,VALID,0.255078,
2009-05-24, 01:01:04,VALID,1003.04,VALID,0,VALID,83.4294,VALID,0,VALID,26.2349,VALID,351,VALID,0.776172,
2009-05-24, 01:02:04,VALID,1003.04,VALID,0,VALID,83.5515,VALID,0,VALID,26.2154,VALID,2,VALID,0.69375,
2009-05-24, 01:03:04,VALID,1003.05,VALID,0,VALID,83.727,VALID,0,VALID,26.1745,VALID,5,VALID,0.591406,
2009-05-24, 01:04:04,VALID,1002.99,VALID,0,VALID,83.7498,VALID,0,VALID,26.155,VALID,3,VALID,0.357422,
2009-05-24, 01:05:04,VALID,1003,VALID,0,VALID,83.8109,VALID,0,VALID,26.157,VALID,3,VALID,0.971094,
2009-05-24, 01:06:04,VALID,1003.02,VALID,0,VALID,83.5973,VALID,0,VALID,26.157,VALID,319,VALID,1.66602,
2009-05-24, 01:07:04,VALID,1003,VALID,0,VALID,83.7117,VALID,0,VALID,26.1355,VALID,356,VALID,1.11406,
2009-05-24, 01:08:04,VALID,1003,VALID,0,VALID,83.5744,VALID,0,VALID,26.1765,VALID,357,VALID,1.07461,
2009-05-24, 01:09:04,VALID,1003.01,VALID,0,VALID,83.46,VALID,0,VALID,26.1765,VALID,334,VALID,0.703906,
2009-05-24, 01:10:04,VALID,1002.99,VALID,0,VALID,83.4371,VALID,0,VALID,26.1765,VALID,339,VALID,0.660547,
2009-05-24, 01:11:04,VALID,1003,VALID,0,VALID,83.46,VALID,0,VALID,26.155,VALID,322,VALID,0.633594,
2009-05-24, 01:12:04,VALID,1003.03,VALID,0,VALID,83.2463,VALID,0,VALID,26.1959,VALID,345,VALID,1.35469,
2009-05-24, 01:13:04,VALID,1003.04,VALID,0,VALID,83.2845,VALID,0,VALID,26.1959,VALID,357,VALID,0.5625,
2009-05-24, 01:14:04,VALID,1003,VALID,0,VALID,83.3303,VALID,0,VALID,26.1745,VALID,343,VALID,0.448047,
2009-05-24, 01:15:04,VALID,1003.03,VALID,0,VALID,83.2769,VALID,0,VALID,26.194,VALID,342,VALID,0.730469,
2009-05-24, 01:16:04,VALID,1002.98,VALID,0,VALID,83.2997,VALID,0,VALID,26.1959,VALID,346,VALID,0.699219,
2009-05-24, 01:17:04,VALID,1002.97,VALID,0,VALID,83.3226,VALID,0,VALID,26.1745,VALID,342,VALID,0.396875,
2009-05-24, 01:18:04,VALID,1002.94,VALID,0,VALID,83.4676,VALID,0,VALID,26.1745,VALID,355,VALID,0.457812,
2009-05-24, 01:19:04,VALID,1002.94,VALID,0,VALID,83.4981,VALID,0,VALID,26.155,VALID,10,VALID,0.501172,
2009-05-24, 01:20:04,VALID,1002.95,VALID,0,VALID,83.4676,VALID,0,VALID,26.1765,VALID,360,VALID,0.859766,
2009-05-24, 01:21:04,VALID,1002.94,VALID,0,VALID,83.5896,VALID,0,VALID,26.1355,VALID,345,VALID,0.358203,
2009-05-24, 01:22:04,VALID,1002.93,VALID,0,VALID,83.7498,VALID,0,VALID,26.1375,VALID,347,VALID,0.457812,
2009-05-24, 01:23:04,VALID,1002.9,VALID,0,VALID,83.6202,VALID,0,VALID,26.0966,VALID,340,VALID,0.508203,
2009-05-24, 01:24:04,VALID,1002.88,VALID,0,VALID,83.6736,VALID,0,VALID,26.0985,VALID,29,VALID,0.398047,
2009-05-24, 01:25:04,VALID,1002.87,VALID,0,VALID,83.7651,VALID,0,VALID,26.0771,VALID,10,VALID,0.611328,
2009-05-24, 01:26:04,VALID,1002.86,VALID,0,VALID,83.7956,VALID,0,VALID,26.0791,VALID,347,VALID,0.389844,
2009-05-24, 01:27:04,VALID,1002.85,VALID,0,VALID,83.8414,VALID,0,VALID,26.0576,VALID,346,VALID,0.534766,
2009-05-24, 01:28:04,VALID,1002.83,VALID,0,VALID,84.0016,VALID,0,VALID,26.0187,VALID,350,VALID,0.145703,
2009-05-24, 01:29:04,VALID,1002.8,VALID,0,VALID,84.0703,VALID,0,VALID,26.0187,VALID,334,VALID,0.395312,
2009-05-24, 01:30:04,VALID,1002.76,VALID,0,VALID,84.2305,VALID,0,VALID,25.9992,VALID,335,VALID,0.472656,
2009-05-24, 01:31:04,VALID,1002.76,VALID,0,VALID,84.3068,VALID,0,VALID,25.9602,VALID,1,VALID,0.464453,
2009-05-24, 01:32:04,VALID,1002.72,VALID,0,VALID,84.4975,VALID,0,VALID,25.9622,VALID,360,VALID,0.518359,
2009-05-24, 01:33:04,VALID,1002.69,VALID,0,VALID,84.7187,VALID,0,VALID,25.9213,VALID,359,VALID,0.449609,
2009-05-24, 01:34:04,VALID,1002.67,VALID,0,VALID,85.0315,VALID,0,VALID,25.8843,VALID,359,VALID,0.246875,
2009-05-24, 01:35:04,VALID,1002.66,VALID,0,VALID,85.2985,VALID,0,VALID,25.8064,VALID,354,VALID,0.352344,
2009-05-24, 01:36:04,VALID,1002.64,VALID,0,VALID,85.802,VALID,0,VALID,25.7265,VALID,347,VALID,0.324609,
2009-05-24, 01:37:04,VALID,1002.63,VALID,0,VALID,86.1377,VALID,0,VALID,25.6506,VALID,355,VALID,0.322266,
2009-05-24, 01:38:04,VALID,1002.62,VALID,0,VALID,86.481,VALID,0,VALID,25.5707,VALID,355,VALID,0.0179687,
2009-05-24, 01:39:04,VALID,1002.63,VALID,0,VALID,86.7404,VALID,0,VALID,25.4928,VALID,355,VALID,0.326172,
2009-05-24, 01:40:04,VALID,1002.59,VALID,0,VALID,86.7861,VALID,0,VALID,25.4734,VALID,355,VALID,0.625781,
2009-05-24, 01:41:04,VALID,1002.58,VALID,0,VALID,86.4581,VALID,0,VALID,25.5513,VALID,350,VALID,0.586719,
2009-05-24, 01:42:04,VALID,1002.52,VALID,0,VALID,86.1301,VALID,0,VALID,25.6311,VALID,353,VALID,0.437109,
2009-05-24, 01:43:04,VALID,1002.52,VALID,0,VALID,86.0233,VALID,0,VALID,25.6311,VALID,357,VALID,0.324219,
2009-05-24, 01:44:04,VALID,1002.5,VALID,0,VALID,86.1377,VALID,0,VALID,25.6311,VALID,354,VALID,0.208203,
2009-05-24, 01:45:04,VALID,1002.47,VALID,0,VALID,86.1606,VALID,0,VALID,25.6116,VALID,354,VALID,0.364453,
2009-05-24, 01:46:04,VALID,1002.43,VALID,0,VALID,86.0843,VALID,0,VALID,25.6097,VALID,357,VALID,0.898438,
2009-05-24, 01:47:04,VALID,1002.44,VALID,0,VALID,85.9012,VALID,0,VALID,25.6486,VALID,343,VALID,0.467969,
2009-05-24, 01:48:04,VALID,1002.42,VALID,0,VALID,85.4892,VALID,0,VALID,25.6876,VALID,345,VALID,0.544141,
2009-05-24, 01:49:04,VALID,1002.4,VALID,0,VALID,85.2604,VALID,0,VALID,25.7869,VALID,357,VALID,0.862109,
2009-05-24, 01:50:04,VALID,1002.39,VALID,0,VALID,85.1917,VALID,0,VALID,25.8064,VALID,336,VALID,0.0121094,
2009-05-24, 01:51:04,VALID,1002.38,VALID,0,VALID,85.0468,VALID,0,VALID,25.8064,VALID,32,VALID,0.399609,
2009-05-24, 01:52:04,VALID,1002.35,VALID,0,VALID,84.9781,VALID,0,VALID,25.8044,VALID,2,VALID,0.825391,
2009-05-24, 01:53:04,VALID,1002.31,VALID,0,VALID,84.9934,VALID,0,VALID,25.8239,VALID,3,VALID,0.158984,
2009-05-24, 01:54:04,VALID,1002.31,VALID,0,VALID,84.9705,VALID,0,VALID,25.8044,VALID,3,VALID,1.34922,
2009-05-24, 01:55:04,VALID,1002.33,VALID,0,VALID,84.9018,VALID,0,VALID,25.8434,VALID,16,VALID,0.608984,
2009-05-24, 01:56:04,VALID,1002.33,VALID,0,VALID,84.6958,VALID,0,VALID,25.8648,VALID,332,VALID,0.761719,
2009-05-24, 01:57:04,VALID,1002.34,VALID,0,VALID,84.5967,VALID,0,VALID,25.8823,VALID,341,VALID,0.451562,
2009-05-24, 01:58:04,VALID,1002.34,VALID,0,VALID,84.6043,VALID,0,VALID,25.8823,VALID,4,VALID,0.545313,
2009-05-24, 01:59:04,VALID,1002.29,VALID,0,VALID,84.3754,VALID,0,VALID,25.9232,VALID,345,VALID,1.08047,
2009-05-24, 02:00:04,VALID,1002.3,VALID,0,VALID,84.3296,VALID,0,VALID,25.9817,VALID,348,VALID,0.571484,
2009-05-24, 02:01:04,VALID,1002.26,VALID,0,VALID,84.3525,VALID,0,VALID,25.9427,VALID,349,VALID,0.437109,
2009-05-24, 02:02:04,VALID,1002.25,VALID,0,VALID,84.1237,VALID,0,VALID,25.9622,VALID,338,VALID,1.07813,
2009-05-24, 02:03:04,VALID,1002.24,VALID,0,VALID,84.2,VALID,0,VALID,26.0012,VALID,345,VALID,0.205469,
2009-05-24, 02:04:04,VALID,1002.23,VALID,0,VALID,84.2228,VALID,0,VALID,25.9622,VALID,345,VALID,0.358984,
2009-05-24, 02:05:04,VALID,1002.19,VALID,0,VALID,84.2457,VALID,0,VALID,25.9427,VALID,345,VALID,0.311719,
2009-05-24, 02:06:04,VALID,1002.19,VALID,0,VALID,84.3296,VALID,0,VALID,25.9427,VALID,27,VALID,0.451953,
2009-05-24, 02:07:04,VALID,1002.16,VALID,0,VALID,84.1771,VALID,0,VALID,25.9427,VALID,357,VALID,0.796484,
2009-05-24, 02:08:04,VALID,1002.16,VALID,0,VALID,84.1389,VALID,0,VALID,25.9602,VALID,357,VALID,0.544922,
2009-05-24, 02:09:04,VALID,1002.13,VALID,0,VALID,84.1847,VALID,0,VALID,25.9622,VALID,357,VALID,0.722266,
2009-05-24, 02:10:04,VALID,1002.15,VALID,0,VALID,83.7651,VALID,0,VALID,25.9817,VALID,358,VALID,1.26836,
2009-05-24, 02:11:04,VALID,1002.13,VALID,0,VALID,83.4523,VALID,0,VALID,26.0596,VALID,350,VALID,0.613672,
2009-05-24, 02:12:04,VALID,1002.12,VALID,0,VALID,83.4065,VALID,0,VALID,26.0576,VALID,351,VALID,0.510156,
2009-05-24, 02:13:04,VALID,1002.11,VALID,0,VALID,83.2692,VALID,0,VALID,26.0791,VALID,311,VALID,0.790234,
2009-05-24, 02:14:04,VALID,1002.11,VALID,0,VALID,83.3684,VALID,0,VALID,26.0791,VALID,358,VALID,0.682422,
2009-05-24, 02:15:04,VALID,1002.13,VALID,0,VALID,83.4447,VALID,0,VALID,26.0596,VALID,352,VALID,0.360547,
2009-05-24, 02:16:04,VALID,1002.1,VALID,0,VALID,83.5134,VALID,0,VALID,26.0401,VALID,4,VALID,0.577734,
2009-05-24, 02:17:04,VALID,1002.12,VALID,0,VALID,83.6125,VALID,0,VALID,26.0206,VALID,353,VALID,0.704687,
2009-05-24, 02:18:04,VALID,1002.12,VALID,0,VALID,83.5439,VALID,0,VALID,26.0206,VALID,357,VALID,0.889063,
2009-05-24, 02:19:04,VALID,1002.13,VALID,0,VALID,83.4676,VALID,0,VALID,26.0206,VALID,341,VALID,0.711719,
2009-05-24, 02:20:04,VALID,1002.13,VALID,0,VALID,83.6049,VALID,0,VALID,26.0206,VALID,346,VALID,0.49375,
2009-05-24, 02:21:04,VALID,1002.13,VALID,0,VALID,83.7422,VALID,0,VALID,25.9797,VALID,346,VALID,0.262891,
2009-05-24, 02:22:04,VALID,1002.11,VALID,0,VALID,83.9177,VALID,0,VALID,25.9642,VALID,357,VALID,0.903906,
2009-05-24, 02:23:04,VALID,1002.11,VALID,0,VALID,84.1542,VALID,0,VALID,25.8843,VALID,6,VALID,0.416406,
2009-05-24, 02:24:04,VALID,1002.07,VALID,0,VALID,84.4593,VALID,0,VALID,25.8259,VALID,35,VALID,0.857031,
2009-05-24, 02:25:04,VALID,1002.08,VALID,0,VALID,84.7645,VALID,0,VALID,25.748,VALID,38,VALID,1.21172,
2009-05-24, 02:26:04,VALID,1002.07,VALID,0,VALID,85.0315,VALID,0,VALID,25.7694,VALID,40,VALID,0.757813,
2009-05-24, 02:27:04,VALID,1002.07,VALID,0,VALID,85.4511,VALID,0,VALID,25.6486,VALID,29,VALID,0.66875,
2009-05-24, 02:28:04,VALID,1002.05,VALID,0,VALID,85.7334,VALID,0,VALID,25.5921,VALID,38,VALID,0.416406,
2009-05-24, 02:29:04,VALID,1002.05,VALID,0,VALID,86.0919,VALID,0,VALID,25.5337,VALID,38,VALID,0.383984,
2009-05-24, 02:30:04,VALID,1002.04,VALID,0,VALID,86.3208,VALID,0,VALID,25.4753,VALID,38,VALID,0.34375,
2009-05-24, 02:31:04,VALID,1002.03,VALID,0,VALID,86.6336,VALID,0,VALID,25.3974,VALID,38,VALID,0.208594,
2009-05-24, 02:32:04,VALID,1002.01,VALID,0,VALID,86.8701,VALID,0,VALID,25.337,VALID,38,VALID,0.401563,
2009-05-24, 02:33:04,VALID,1002,VALID,0,VALID,86.9845,VALID,0,VALID,25.339,VALID,38,VALID,0.221875,
2009-05-24, 02:34:04,VALID,1001.99,VALID,0,VALID,87.1294,VALID,0,VALID,25.3,VALID,37,VALID,0.477734,
2009-05-24, 02:35:04,VALID,1002,VALID,0,VALID,87.2362,VALID,0,VALID,25.2786,VALID,26,VALID,0.486719,
2009-05-24, 02:36:04,VALID,1001.97,VALID,0,VALID,87.2362,VALID,0,VALID,25.2786,VALID,19,VALID,0.113281,
2009-05-24, 02:37:04,VALID,1002.01,VALID,0,VALID,87.3125,VALID,0,VALID,25.2806,VALID,19,VALID,0.308203,
2009-05-24, 02:38:04,VALID,1001.99,VALID,0,VALID,87.282,VALID,0,VALID,25.2786,VALID,19,VALID,0.159766,
2009-05-24, 02:39:04,VALID,1001.98,VALID,0,VALID,87.2362,VALID,0,VALID,25.2806,VALID,19,VALID,0,
2009-05-24, 02:40:04,VALID,1001.97,VALID,0,VALID,87.3812,VALID,0,VALID,25.2397,VALID,19,VALID,0,
2009-05-24, 02:41:04,VALID,1002,VALID,0,VALID,87.4956,VALID,0,VALID,25.2416,VALID,19,VALID,0,
2009-05-24, 02:42:04,VALID,1002,VALID,0,VALID,87.5948,VALID,0,VALID,25.2202,VALID,19,VALID,0.221484,
2009-05-24, 02:43:04,VALID,1001.98,VALID,0,VALID,87.6101,VALID,0,VALID,25.2202,VALID,19,VALID,0.333594,
2009-05-24, 02:44:04,VALID,1001.98,VALID,0,VALID,87.7092,VALID,0,VALID,25.1832,VALID,19,VALID,0.122656,
2009-05-24, 02:45:04,VALID,1001.99,VALID,0,VALID,87.9,VALID,0,VALID,25.1423,VALID,19,VALID,0.345313,
2009-05-24, 02:46:04,VALID,1001.97,VALID,0,VALID,88.0525,VALID,0,VALID,25.1034,VALID,19,VALID,0.469141,
2009-05-24, 02:47:04,VALID,1001.97,VALID,0,VALID,88.1593,VALID,0,VALID,25.0858,VALID,19,VALID,0.304688,
2009-05-24, 02:48:04,VALID,1001.98,VALID,0,VALID,88.3119,VALID,0.100563,VALID,25.0255,VALID,19,VALID,0.355859,
2009-05-24, 02:49:04,VALID,1002.02,VALID,0,VALID,88.4645,VALID,0.100563,VALID,25.0255,VALID,19,VALID,0.254297,
2009-05-24, 02:50:04,VALID,1002,VALID,0,VALID,88.5942,VALID,0,VALID,24.9866,VALID,19,VALID,0.133203,
2009-05-24, 02:51:04,VALID,1002.01,VALID,0,VALID,88.7162,VALID,0,VALID,24.9671,VALID,19,VALID,0.332031,
2009-05-24, 02:52:04,VALID,1002,VALID,0,VALID,88.8078,VALID,0,VALID,24.9671,VALID,41,VALID,0.3375,
2009-05-24, 02:53:04,VALID,1002,VALID,0,VALID,88.7697,VALID,0,VALID,24.9866,VALID,41,VALID,0.335156,
2009-05-24, 02:54:04,VALID,1002.04,VALID,0,VALID,88.6857,VALID,0,VALID,25.006,VALID,31,VALID,0.700781,
2009-05-24, 02:55:04,VALID,1002.01,VALID,0,VALID,88.4798,VALID,0.100563,VALID,25.0839,VALID,24,VALID,0.351953,
2009-05-24, 02:56:04,VALID,1002.01,VALID,0,VALID,88.3043,VALID,0,VALID,25.0431,VALID,24,VALID,0.433594,
2009-05-24, 02:57:04,VALID,1002.03,VALID,0,VALID,88.1822,VALID,0,VALID,25.0839,VALID,24,VALID,0.297266,
2009-05-24, 02:58:04,VALID,1002.04,VALID,0,VALID,88.1975,VALID,0,VALID,25.0644,VALID,24,VALID,0.284766,
2009-05-24, 02:59:04,VALID,1002.05,VALID,0,VALID,88.3348,VALID,0.100563,VALID,25.0663,VALID,24,VALID,0.347656,
2009-05-24, 03:00:04,VALID,1002.06,VALID,0,VALID,88.3424,VALID,0,VALID,25.045,VALID,24,VALID,0.503906,
2009-05-24, 03:01:04,VALID,1002.06,VALID,0,VALID,88.5484,VALID,0,VALID,25.0041,VALID,25,VALID,0.897656,
2009-05-24, 03:02:04,VALID,1002.09,VALID,0,VALID,88.5637,VALID,0.100563,VALID,25.0663,VALID,28,VALID,0.570703,
2009-05-24, 03:03:04,VALID,1002.08,VALID,0,VALID,88.5332,VALID,0.100563,VALID,25.0236,VALID,28,VALID,0.269531,
2009-05-24, 03:04:04,VALID,1002.09,VALID,0,VALID,88.5637,VALID,0,VALID,25.006,VALID,47,VALID,0.602734,
2009-05-24, 03:05:04,VALID,1002.08,VALID,0,VALID,88.6552,VALID,0,VALID,24.9847,VALID,50,VALID,0.4625,
2009-05-24, 03:06:04,VALID,1002.09,VALID,0,VALID,88.6628,VALID,0,VALID,25.006,VALID,50,VALID,0.407422,
2009-05-24, 03:07:04,VALID,1002.06,VALID,0,VALID,88.7468,VALID,0,VALID,25.0079,VALID,49,VALID,0.532031,
2009-05-24, 03:08:04,VALID,1002.05,VALID,0,VALID,88.7544,VALID,0,VALID,24.9866,VALID,47,VALID,0.345703,
2009-05-24, 03:09:04,VALID,1002.05,VALID,0,VALID,88.7162,VALID,0,VALID,24.9866,VALID,46,VALID,0.402734,
2009-05-24, 03:10:04,VALID,1002.06,VALID,0,VALID,88.64,VALID,0,VALID,24.9847,VALID,41,VALID,0.509766,
2009-05-24, 03:11:04,VALID,1002.06,VALID,0,VALID,88.5789,VALID,0,VALID,25.0079,VALID,41,VALID,0.347656,
2009-05-24, 03:12:04,VALID,1002.06,VALID,0,VALID,88.7162,VALID,0,VALID,24.9282,VALID,41,VALID,0.460547,
2009-05-24, 03:13:04,VALID,1002.06,VALID,0,VALID,88.8383,VALID,0,VALID,24.969,VALID,41,VALID,0.505078,
2009-05-24, 03:14:04,VALID,1002.07,VALID,0,VALID,88.8841,VALID,0,VALID,24.969,VALID,34,VALID,0.616016,
2009-05-24, 03:15:04,VALID,1002.06,VALID,0,VALID,88.8078,VALID,0.100563,VALID,24.9671,VALID,34,VALID,0.420312,
2009-05-24, 03:16:04,VALID,1002.07,VALID,0,VALID,88.8078,VALID,0,VALID,24.9476,VALID,34,VALID,0.510156,
2009-05-24, 03:17:04,VALID,1002.07,VALID,0,VALID,88.8002,VALID,0,VALID,24.9476,VALID,34,VALID,0.298828,
2009-05-24, 03:18:04,VALID,1002.11,VALID,0,VALID,88.907,VALID,0.100563,VALID,24.9282,VALID,34,VALID,0.512109,
2009-05-24, 03:19:04,VALID,1002.12,VALID,0,VALID,88.8612,VALID,0.100563,VALID,24.9087,VALID,34,VALID,0.191016,
2009-05-24, 03:20:04,VALID,1002.15,VALID,0,VALID,88.8917,VALID,0,VALID,24.9282,VALID,34,VALID,0.153516,
2009-05-24, 03:21:04,VALID,1002.17,VALID,0,VALID,88.8536,VALID,0,VALID,24.9087,VALID,34,VALID,0.265234,
2009-05-24, 03:22:04,VALID,1002.17,VALID,0,VALID,88.8612,VALID,0,VALID,24.9087,VALID,34,VALID,0,
2009-05-24, 03:23:04,VALID,1002.17,VALID,0,VALID,88.8612,VALID,0,VALID,24.9106,VALID,34,VALID,0.126563,
2009-05-24, 03:24:04,VALID,1002.15,VALID,0,VALID,88.8536,VALID,0,VALID,24.8697,VALID,34,VALID,0.242188,
2009-05-24, 03:25:04,VALID,1002.18,VALID,0,VALID,89.029,VALID,0,VALID,24.8132,VALID,34,VALID,0.217578,
2009-05-24, 03:26:04,VALID,1002.13,VALID,0,VALID,89.2426,VALID,0,VALID,24.7529,VALID,34,VALID,0.225781,
2009-05-24, 03:27:04,VALID,1002.15,VALID,0,VALID,89.5402,VALID,0.100563,VALID,24.714,VALID,34,VALID,0.107422,
2009-05-24, 03:28:04,VALID,1002.19,VALID,0,VALID,89.7461,VALID,0,VALID,24.7548,VALID,34,VALID,0.208984,
2009-05-24, 03:29:04,VALID,1002.2,VALID,0,VALID,89.7996,VALID,0,VALID,24.7529,VALID,34,VALID,0.213672,
2009-05-24, 03:30:04,VALID,1002.19,VALID,0,VALID,89.6241,VALID,0,VALID,24.7335,VALID,34,VALID,0.390625,
2009-05-24, 03:31:04,VALID,1002.18,VALID,0,VALID,89.6546,VALID,0.100563,VALID,24.6926,VALID,34,VALID,0.234766,
2009-05-24, 03:32:04,VALID,1002.18,VALID,0,VALID,89.8377,VALID,0.100563,VALID,24.714,VALID,3,VALID,0.651563,
2009-05-24, 03:33:04,VALID,1002.16,VALID,0,VALID,89.8987,VALID,0.100563,VALID,24.6945,VALID,5,VALID,0.312109,
2009-05-24, 03:34:04,VALID,1002.14,VALID,0,VALID,89.9979,VALID,0.100563,VALID,24.714,VALID,355,VALID,0.832422,
2009-05-24, 03:35:04,VALID,1002.16,VALID,0,VALID,89.9292,VALID,0,VALID,24.7529,VALID,352,VALID,0.626953,
2009-05-24, 03:36:04,VALID,1002.12,VALID,0,VALID,89.7309,VALID,0,VALID,24.7919,VALID,352,VALID,0.677734,
2009-05-24, 03:37:04,VALID,1002.16,VALID,0,VALID,89.6775,VALID,0,VALID,24.8308,VALID,352,VALID,0.479688,
2009-05-24, 03:38:04,VALID,1002.13,VALID,0,VALID,89.5173,VALID,0.100563,VALID,24.8503,VALID,352,VALID,0.362109,
2009-05-24, 03:39:04,VALID,1002.15,VALID,0,VALID,89.38,VALID,0,VALID,24.8697,VALID,352,VALID,0.454688,
2009-05-24, 03:40:04,VALID,1002.17,VALID,0,VALID,89.3418,VALID,0,VALID,24.9087,VALID,352,VALID,0.764844,
2009-05-24, 03:41:04,VALID,1002.2,VALID,0,VALID,89.0519,VALID,0,VALID,24.9671,VALID,351,VALID,0.409375,
2009-05-24, 03:42:04,VALID,1002.2,VALID,0,VALID,88.762,VALID,0.100563,VALID,25.0255,VALID,351,VALID,0.140234,
2009-05-24, 03:43:04,VALID,1002.21,VALID,0,VALID,88.6247,VALID,0,VALID,25.0644,VALID,351,VALID,0.379687,
2009-05-24, 03:44:04,VALID,1002.23,VALID,0,VALID,88.3729,VALID,0.100563,VALID,25.1034,VALID,351,VALID,0.19375,